Simultaneous Nadir Overpasses (SNOs) Predictions

Prediction of SNOs between NOAA-21 and NOAA-19 Satellite Orbit:

Table of predicted SNOs for the next 14.0 days since TLE Epoch: 12/10/2022
Index Date (NOAA-21) Time (NOAA-21) Lat,Lon (NOAA-21) SZA (NOAA-21 ) Date (NOAA-19) Time (NOAA-19) Lat,Lon (NOAA-19) SZA (NOAA-19 ) Distance(km) Time Diff (sec)
1 12/14/2022 15:10:09 75.75, -63.00 99.30 12/14/2022 15:09:00 75.76, -65.10 99.46 57.51 69
2 12/14/2022 16:00:50 -76.08, 103.25 80.31 12/14/2022 15:59:57 -76.09, 103.30 80.30 1.58 53
3 12/14/2022 16:51:35 76.06, -89.38 99.67 12/14/2022 16:50:52 76.06, -89.54 99.69 4.26 43
4 12/14/2022 17:42:11 -76.12, 77.79 80.27 12/14/2022 17:41:56 -76.11, 77.90 80.27 2.93 15
5 12/14/2022 18:32:56 76.10,-114.84 99.72 12/14/2022 18:32:51 76.08,-114.94 99.71 3.24 5
6 12/14/2022 19:23:31 -76.11, 52.48 80.27 12/14/2022 19:23:55 -76.14, 52.50 80.25 3.48 24
7 12/14/2022 20:14:17 76.14,-140.31 99.77 12/14/2022 20:14:50 76.11,-140.34 99.73 3.41 33
8 12/14/2022 21:04:52 -76.14, 27.02 80.23 12/14/2022 21:05:54 -76.16, 27.10 80.23 2.93 62
9 12/14/2022 21:55:37 76.13,-165.61 99.76 12/14/2022 21:56:49 76.13,-165.75 99.76 3.62 72



Historial Predications of SNOs between NOAA-21 and NOAA-19
